Погода в Сантьяго-дель-Эстеро

Аргентина     27°47′45″S   64°16′14″W
темп.,
°C
ветер,
м/с
пор.,
м/с
влажн.,
%
обл.,
%
осадки,
мм/ч
давл.,
гПа
погр.,
м
29 июня, ср
ср2900:00+11св34710 0.0 102162
03:00+10с36780 0.0 1020108
06:00+8с36830 0.0 1017118
09:00+8с310750 0.0 1017249
12:00+17ссв610390 0.0 1016688
15:00+23ссв811240 0.0 10111250
18:00+22ссв59260 0.0 1009254
21:00+16ссв48380 0.0 1010138
30 июня, чт
чт3000:00+13ссв410470 0.0 1011187
03:00+12ссв37540 0.0 1011125
06:00+11вюв33550 0.0 101334
09:00+11ю49600 0.0 1018246
12:00+17юв67370 0.0 1019774
15:00+20юв45320 0.0 10161220
18:00+18юв34380 0.0 1014283
21:00+14юв22510 0.0 101417
1 июля, пт
пт100:00+12в22572 0.0 101212
03:00+12св22610 0.0 100913
06:00+11с22710 0.0 100726
09:00+12ссз23640 0.0 100699
12:00+19с47502 0.0 1004680
15:00+24с57436 0.0 9991109
18:00+24с234614 0.0 99828
21:00+19ююз2261100 0.0 100115
2 июля, сб
сб200:00+17ю3564100 0.0 100474
03:00+16ю6136536 0.0 1007320
06:00+15ю715595 0.0 1010680
09:00+13ююз410594 0.0 1014422
12:00+19ююв564173 0.0 10151108
15:00+21юв443883 0.0 10121364
18:00+19ююв2347100 0.0 1012277
21:00+16ююв355482 0.0 1015124
3 июля, вс
вс300:00+13вюв355082 0.0 1016133
03:00+11ююв225480 0.0 101654
06:00+10ю365581 0.0 1016121
09:00+10ю35475 0.0 1019169
12:00+16ююв33335 0.0 1018647
15:00+19ююв33302 0.0 1015987
18:00+18юв23375 0.0 1014222
21:00+13ю11500 0.0 101610